Find Starlink 31592

NORAD ID: 59467 Int'l Des: 2024-068 Owner: SPXS Country: US Constellation: starlink operational
LEOCIRCULAR

Current View

Loading 3D Globe...

About Starlink 31592

Starlink 31592 (NORAD 59467) is a starlink constellation satellite (v2 mini) launched Apr 10, 2024 by SPXS of US. It operates in LEO, CIRCULAR orbit with a mass of 730.00 kg.

Upcoming Passes

Passes for default location (London). Set your location on the main map for personalized predictions.

Altitude History

Loading altitude history...

Two-Line Element Set

1 59467U 24068N 26262.65182848 .00002197 00000-0 89344-4 0 9992
2 59467 43.0056 19.3862 0001905 272.3425 87.7209 15.27587523138189
Epoch: Sep 19, 2026 • Age: 42 hours

Current Status

Altitude 486.3 km
Apogee / Perigee N/A
Velocity 7.62 km/s
Sub-Earth Point -19.09°S, 160.85°W
Launch Date Apr 10, 2024
Age 2.4 years
Type internet

Technical Details

Classification Payload
Mass 730.00 kg
Dry Mass 700.00 kg
Length 0.30 m
Span 29.00 m
Shape ? Box + pan
Manufacturer SPXS
Bus Type Starlink V2M
Phase Status In Orbit
Owner/State SPXS/US

Most Searched